| time (UTC) | temp F | wind direction | speed MPH | gust MPH | rain 1hr in | rain 24hr in | rain mn in | humidity % | barometer mb |
| 20260902150203 | 67 | 245 | 2.0 | 8.0 | 0.00 | 0.00 | 0.00 | 75 | 1022.1 |
| 20260902145203 | 68 | 62 | 1.0 | 8.0 | 0.00 | 0.00 | 0.00 | 75 | 1022.0 |
| 20260902144226 | 67 | 58 | 2.0 | 7.0 | 0.00 | 0.00 | 0.00 | 74 | 1021.9 |
| 20260902143203 | 68 | 67 | 2.0 | 7.0 | 0.00 | 0.00 | 0.00 | 75 | 1021.8 |
| 20260902142202 | 66 | 65 | 2.0 | 5.0 | 0.00 | 0.00 | 0.00 | 77 | 1021.7 |
| 20260902141204 | 66 | 66 | 2.0 | 5.0 | 0.00 | 0.00 | 0.00 | 76 | 1021.7 |
| 20260902140202 | 66 | 40 | 2.0 | 6.0 | 0.00 | 0.00 | 0.00 | 77 | 1021.6 |
| 20260902135203 | 66 | 76 | 2.0 | 4.0 | 0.00 | 0.00 | 0.00 | 77 | 1021.8 |
| 20260902134203 | 65 | 69 | 2.0 | 7.0 | 0.00 | 0.00 | 0.00 | 78 | 1021.8 |
| 20260902133203 | 64 | 62 | 2.0 | 7.0 | 0.00 | 0.00 | 0.00 | 79 | 1021.6 |
| 20260902132203 | 63 | 81 | 2.0 | 8.0 | 0.00 | 0.00 | 0.00 | 82 | 1021.5 |
| 20260902131202 | 63 | 72 | 4.0 | 10.0 | 0.00 | 0.00 | 0.00 | 83 | 1021.5 |
| 20260902130224 | 62 | 72 | 1.0 | 11.0 | 0.00 | 0.00 | 0.00 | 84 | 1021.4 |
| 20260902125203 | 62 | 62 | 4.0 | 9.0 | 0.00 | 0.00 | 0.00 | 83 | 1021.4 |
| 20260902124223 | 62 | 76 | 3.0 | 8.0 | 0.00 | 0.00 | 0.00 | 83 | 1021.4 |
| 20260902123203 | 62 | 65 | 2.0 | 9.0 | 0.00 | 0.00 | 0.00 | 84 | 1021.4 |
| 20260902122203 | 61 | 68 | 3.0 | 8.0 | 0.00 | 0.00 | 0.00 | 85 | 1021.4 |
| 20260902121203 | 61 | 63 | 1.0 | 8.0 | 0.00 | 0.00 | 0.00 | 86 | 1021.7 |
| 20260902120203 | 61 | 66 | 1.0 | 7.0 | 0.00 | 0.00 | 0.00 | 87 | 1021.6 |
| 20260902115203 | 60 | 63 | 1.0 | 4.0 | 0.00 | 0.00 | 0.00 | 88 | 1021.5 |
| 20260902114203 | 60 | 63 | 1.0 | 4.0 | 0.00 | 0.00 | 0.00 | 89 | 1021.4 |
| 20260902113202 | 60 | 63 | 1.0 | 7.0 | 0.00 | 0.00 | 0.00 | 89 | 1021.3 |
| 20260902112203 | 59 | 63 | 2.0 | 8.0 | 0.00 | 0.00 | 0.00 | 91 | 1021.0 |
| 20260902111202 | 59 | 57 | 1.0 | 4.0 | 0.00 | 0.00 | 0.00 | 92 | 1021.0 |
| 20260902110224 | 58 | 57 | 3.0 | 8.0 | 0.00 | 0.00 | 0.00 | 93 | 1020.9 |
| 20260902105202 | 57 | 57 | 1.0 | 4.0 | 0.00 | 0.00 | 0.00 | 94 | 1020.9 |
| 20260902104203 | 57 | 57 | 0.0 | 3.0 | 0.00 | 0.00 | 0.00 | 94 | 1020.9 |
| 20260902103202 | 57 | 57 | 1.0 | 4.0 | 0.00 | 0.00 | 0.00 | 95 | 1020.9 |
| 20260902102203 | 57 | 57 | 1.0 | 3.0 | 0.00 | 0.00 | 0.00 | 95 | 1020.8 |
| 20260902101202 | 56 | 57 | 0.0 | 0.0 | 0.00 | 0.00 | 0.00 | 96 | 1020.9 |
| 20260902100203 | 56 | 57 | 0.0 | 0.0 | 0.00 | 0.00 | 0.00 | 96 | 1020.9 |
| 20260902095202 | 56 | 57 | 0.0 | 0.0 | 0.00 | 0.00 | 0.00 | 95 | 1020.8 |
| 20260902094203 | 56 | 57 | 0.0 | 0.0 | 0.00 | 0.00 | 0.00 | 95 | 1020.9 |
| 20260902093203 | 57 | 57 | 0.0 | 0.0 | 0.00 | 0.00 | 0.00 | 95 | 1020.8 |
| 20260902092202 | 58 | 57 | 0.0 | 1.0 | 0.00 | 0.00 | 0.00 | 95 | 1020.7 |
| 20260902091203 | 57 | 57 | 0.0 | 0.0 | 0.00 | 0.00 | 0.00 | 95 | 1020.7 |
| 20260902090202 | 57 | 57 | 0.0 | 0.0 | 0.00 | 0.00 | 0.00 | 95 | 1020.7 |
| 20260902085203 | 58 | 57 | 0.0 | 0.0 | 0.00 | 0.00 | 0.00 | 95 | 1020.7 |
| 20260902084203 | 58 | 57 | 0.0 | 0.0 | 0.00 | 0.00 | 0.00 | 95 | 1020.8 |
| 20260902083203 | 59 | 57 | 0.0 | 1.0 | 0.00 | 0.00 | 0.00 | 94 | 1020.7 |
| 20260902082203 | 60 | 57 | 1.0 | 3.0 | 0.00 | 0.00 | 0.00 | 94 | 1020.7 |
| 20260902081203 | 60 | 57 | 2.0 | 4.0 | 0.00 | 0.00 | 0.00 | 94 | 1020.7 |
| 20260902080203 | 60 | 57 | 2.0 | 5.0 | 0.00 | 0.00 | 0.00 | 94 | 1020.6 |
| 20260902075202 | 60 | 57 | 2.0 | 3.0 | 0.00 | 0.00 | 0.00 | 95 | 1020.7 |
| 20260902074203 | 61 | 57 | 0.0 | 4.0 | 0.00 | 0.00 | 0.00 | 94 | 1020.6 |
| 20260902073202 | 61 | 57 | 1.0 | 5.0 | 0.00 | 0.00 | 0.00 | 95 | 1020.6 |
| 20260902072224 | 61 | 57 | 2.0 | 6.0 | 0.00 | 0.00 | 0.00 | 95 | 1020.5 |
| 20260902071202 | 61 | 57 | 1.0 | 4.0 | 0.00 | 0.00 | 0.00 | 95 | 1020.6 |
| 20260902070203 | 61 | 57 | 1.0 | 5.0 | 0.00 | 0.00 | 0.00 | 95 | 1020.6 |
| 20260902065203 | 61 | 57 | 2.0 | 5.0 | 0.00 | 0.00 | 0.00 | 94 | 1020.5 |
| 20260902064203 | 61 | 57 | 1.0 | 3.0 | 0.00 | 0.00 | 0.00 | 94 | 1020.4 |
| 20260902063203 | 61 | 57 | 0.0 | 4.0 | 0.00 | 0.00 | 0.00 | 94 | 1020.4 |
| 20260902062202 | 61 | 57 | 1.0 | 4.0 | 0.00 | 0.00 | 0.00 | 94 | 1020.3 |
| 20260902061225 | 62 | 57 | 1.0 | 4.0 | 0.00 | 0.00 | 0.00 | 94 | 1020.1 |
| 20260902060225 | 62 | 57 | 0.0 | 2.0 | 0.00 | 0.00 | 0.00 | 94 | 1019.9 |
| 20260902055202 | 62 | 57 | 0.0 | 1.0 | 0.00 | 0.00 | 0.00 | 94 | 1019.9 |
| 20260902054203 | 62 | 57 | 0.0 | 2.0 | 0.00 | 0.00 | 0.00 | 95 | 1019.8 |
| 20260902053202 | 62 | 57 | 1.0 | 3.0 | 0.00 | 0.00 | 0.00 | 95 | 1019.6 |
| 20260902052204 | 62 | 57 | 0.0 | 3.0 | 0.00 | 0.00 | 0.00 | 95 | 1019.6 |
| 20260902051224 | 62 | 57 | 0.0 | 2.0 | 0.00 | 0.00 | 0.00 | 95 | 1019.5 |
| 20260902050203 | 62 | 57 | 1.0 | 2.0 | 0.00 | 0.00 | 0.00 | 95 | 1019.5 |
| 20260902045224 | 62 | 57 | 0.0 | 1.0 | 0.00 | 0.00 | 0.00 | 95 | 1019.4 |
| 20260902044203 | 62 | 57 | 0.0 | 2.0 | 0.00 | 0.00 | 0.00 | 95 | 1019.4 |
| 20260902043202 | 62 | 57 | 1.0 | 2.0 | 0.00 | 0.00 | 0.00 | 95 | 1019.5 |
| 20260902042203 | 62 | 57 | 0.0 | 2.0 | 0.00 | 0.00 | 0.00 | 95 | 1019.4 |
| 20260902041202 | 62 | 57 | 0.0 | 1.0 | 0.00 | 0.00 | 0.00 | 95 | 1019.3 |
| 20260902040203 | 62 | 57 | 1.0 | 2.0 | 0.00 | 0.00 | 0.00 | 95 | 1019.2 |
| 20260902035202 | 62 | 57 | 1.0 | 4.0 | 0.00 | 0.00 | 0.00 | 95 | 1019.1 |
| 20260902034204 | 62 | 57 | 2.0 | 4.0 | 0.00 | 0.00 | 0.00 | 95 | 1018.8 |
| 20260902033203 | 62 | 57 | 2.0 | 5.0 | 0.00 | 0.00 | 0.00 | 95 | 1018.7 |
| 20260902032202 | 62 | 57 | 0.0 | 2.0 | 0.00 | 0.00 | 0.00 | 94 | 1018.7 |
| 20260902031203 | 62 | 57 | 1.0 | 3.0 | 0.00 | 0.00 | 0.00 | 94 | 1018.7 |
| 20260902030202 | 62 | 57 | 0.0 | 0.0 | 0.00 | 0.00 | 0.00 | 94 | 1018.9 |
| 20260902025203 | 62 | 57 | 0.0 | 2.0 | 0.00 | 0.00 | 0.00 | 94 | 1018.7 |
| 20260902024223 | 62 | 57 | 0.0 | 2.0 | 0.00 | 0.00 | 0.00 | 94 | 1018.6 |
| 20260902023224 | 62 | 57 | 0.0 | 1.0 | 0.00 | 0.00 | 0.00 | 94 | 1018.6 |
| 20260902022224 | 62 | 57 | 1.0 | 3.0 | 0.00 | 0.00 | 0.00 | 94 | 1018.5 |
| 20260902021202 | 62 | 57 | 0.0 | 3.0 | 0.00 | 0.00 | 0.00 | 94 | 1018.6 |
| 20260902020203 | 62 | 57 | 1.0 | 3.0 | 0.00 | 0.00 | 0.00 | 94 | 1018.7 |
| 20260902015203 | 62 | 57 | 0.0 | 2.0 | 0.00 | 0.00 | 0.00 | 94 | 1018.6 |
| 20260902014202 | 62 | 57 | 1.0 | 2.0 | 0.00 | 0.00 | 0.00 | 94 | 1018.6 |
| 20260902013203 | 61 | 57 | 1.0 | 2.0 | 0.00 | 0.00 | 0.00 | 94 | 1018.4 |
| 20260902012202 | 62 | 57 | 1.0 | 4.0 | 0.00 | 0.00 | 0.00 | 94 | 1018.6 |
| 20260902011203 | 61 | 57 | 0.0 | 3.0 | 0.00 | 0.00 | 0.00 | 94 | 1018.6 |
| 20260902010203 | 61 | 57 | 1.0 | 2.0 | 0.00 | 0.00 | 0.00 | 94 | 1018.5 |
| 20260902005204 | 61 | 57 | 0.0 | 4.0 | 0.00 | 0.00 | 0.00 | 93 | 1018.4 |
| 20260902004204 | 61 | 57 | 1.0 | 3.0 | 0.00 | 0.00 | 0.00 | 94 | 1018.3 |
| 20260902003244 | 61 | 57 | 1.0 | 2.0 | 0.00 | 0.00 | 0.00 | 93 | 1018.2 |
| 20260902002203 | 62 | 57 | 1.0 | 3.0 | 0.00 | 0.00 | 0.00 | 93 | 1018.2 |
| 20260902001203 | 61 | 57 | 0.0 | 2.0 | 0.00 | 0.00 | 0.00 | 93 | 1018.1 |
| 20260902000204 | 61 | 57 | 0.0 | 1.0 | 0.00 | 0.00 | 0.00 | 92 | 1018.2 |
| 20260901235203 | 61 | 57 | 0.0 | 0.0 | 0.00 | 0.00 | 0.00 | 92 | 1018.1 |
| 20260901234203 | 62 | 57 | 0.0 | 2.0 | 0.00 | 0.00 | 0.00 | 92 | 1018.1 |
| 20260901233203 | 62 | 57 | 0.0 | 2.0 | 0.00 | 0.00 | 0.00 | 92 | 1018.0 |
| 20260901232203 | 62 | 58 | 0.0 | 3.0 | 0.00 | 0.00 | 0.00 | 91 | 1018.1 |
| 20260901231202 | 63 | 57 | 0.0 | 3.0 | 0.00 | 0.00 | 0.00 | 91 | 1017.9 |
| 20260901230203 | 63 | 57 | 0.0 | 4.0 | 0.00 | 0.00 | 0.00 | 91 | 1017.9 |
| 20260901225203 | 63 | 57 | 0.0 | 2.0 | 0.00 | 0.00 | 0.00 | 90 | 1017.8 |
| 20260901224202 | 63 | 57 | 0.0 | 3.0 | 0.00 | 0.00 | 0.00 | 89 | 1017.8 |
| 20260901223203 | 64 | 57 | 0.0 | 3.0 | 0.00 | 0.00 | 0.00 | 88 | 1017.7 |
| 20260901222202 | 64 | 57 | 1.0 | 3.0 | 0.00 | 0.00 | 0.00 | 87 | 1017.8 |
| 20260901221203 | 65 | 57 | 1.0 | 3.0 | 0.00 | 0.00 | 0.00 | 86 | 1017.7 |
| 20260901220203 | 65 | 57 | 0.0 | 2.0 | 0.00 | 0.00 | 0.00 | 85 | 1017.6 |
| 20260901215202 | 66 | 57 | 1.0 | 3.0 | 0.00 | 0.00 | 0.00 | 84 | 1017.5 |
| 20260901214203 | 66 | 57 | 1.0 | 5.0 | 0.00 | 0.00 | 0.00 | 83 | 1017.5 |
| 20260901213203 | 66 | 50 | 1.0 | 5.0 | 0.00 | 0.00 | 0.00 | 83 | 1017.5 |
| 20260901212202 | 67 | 49 | 1.0 | 5.0 | 0.00 | 0.00 | 0.00 | 82 | 1017.5 |
| 20260901211224 | 68 | 11 | 1.0 | 4.0 | 0.00 | 0.00 | 0.00 | 81 | 1017.6 |
| 20260901210203 | 69 | 56 | 0.0 | 4.0 | 0.00 | 0.00 | 0.00 | 79 | 1017.3 |
| 20260901205203 | 69 | 56 | 1.0 | 5.0 | 0.00 | 0.00 | 0.00 | 80 | 1017.3 |
| 20260901204203 | 68 | 40 | 1.0 | 5.0 | 0.00 | 0.00 | 0.00 | 80 | 1017.1 |
| 20260901203203 | 69 | 66 | 1.0 | 4.0 | 0.00 | 0.00 | 0.00 | 80 | 1017.1 |
| 20260901202203 | 69 | 53 | 1.0 | 10.0 | 0.00 | 0.00 | 0.00 | 79 | 1017.1 |
| 20260901201202 | 69 | 53 | 2.0 | 7.0 | 0.00 | 0.00 | 0.00 | 78 | 1017.1 |
| 20260901200203 | 68 | 69 | 1.0 | 7.0 | 0.00 | 0.00 | 0.00 | 80 | 1017.2 |
| 20260901195203 | 69 | 54 | 1.0 | 7.0 | 0.00 | 0.00 | 0.00 | 77 | 1017.3 |
| 20260901194203 | 69 | 77 | 1.0 | 8.0 | 0.00 | 0.00 | 0.00 | 78 | 1017.2 |
| 20260901193203 | 69 | 70 | 2.0 | 9.0 | 0.00 | 0.00 | 0.00 | 77 | 1017.4 |
| 20260901192202 | 71 | 80 | 1.0 | 4.0 | 0.00 | 0.00 | 0.00 | 76 | 1017.4 |
| 20260901191203 | 69 | 73 | 2.0 | 7.0 | 0.00 | 0.00 | 0.00 | 77 | 1017.2 |
| 20260901190203 | 71 | 93 | 1.0 | 4.0 | 0.00 | 0.00 | 0.00 | 73 | 1017.2 |
| 20260901185202 | 71 | 74 | 2.0 | 5.0 | 0.00 | 0.00 | 0.00 | 75 | 1017.3 |
| 20260901184203 | 70 | 94 | 1.0 | 8.0 | 0.00 | 0.00 | 0.00 | 74 | 1017.2 |
| 20260901183223 | 70 | 79 | 1.0 | 7.0 | 0.00 | 0.00 | 0.00 | 75 | 1017.2 |
| 20260901182203 | 69 | 27 | 2.0 | 6.0 | 0.00 | 0.00 | 0.00 | 75 | 1017.2 |
| 20260901181203 | 69 | 46 | 1.0 | 6.0 | 0.00 | 0.00 | 0.00 | 76 | 1017.2 |
| 20260901180202 | 66 | 67 | 1.0 | 8.0 | 0.00 | 0.00 | 0.00 | 77 | 1017.3 |
| 20260901175202 | 66 | 61 | 3.0 | 9.0 | 0.00 | 0.00 | 0.00 | 75 | 1017.0 |
| 20260901174203 | 68 | 61 | 2.0 | 7.0 | 0.00 | 0.00 | 0.00 | 75 | 1017.1 |
| 20260901173203 | 68 | 71 | 1.0 | 4.0 | 0.00 | 0.00 | 0.00 | 78 | 1017.1 |
| 20260901172202 | 69 | 85 | 2.0 | 9.0 | 0.00 | 0.00 | 0.00 | 78 | 1017.1 |
| 20260901171224 | 68 | 60 | 4.0 | 9.0 | 0.00 | 0.00 | 0.00 | 75 | 1017.0 |
| 20260901170202 | 69 | 62 | 2.0 | 4.0 | 0.00 | 0.00 | 0.00 | 75 | 1017.1 |
| 20260901165203 | 69 | 58 | 1.0 | 7.0 | 0.00 | 0.00 | 0.00 | 74 | 1017.1 |
| 20260901164223 | 69 | 92 | 3.0 | 6.0 | 0.00 | 0.00 | 0.00 | 74 | 1017.1 |
| 20260901163203 | 70 | 64 | 1.0 | 7.0 | 0.00 | 0.00 | 0.00 | 75 | 1017.1 |
| 20260901162202 | 69 | 69 | 1.0 | 6.0 | 0.00 | 0.00 | 0.00 | 76 | 1016.9 |
| 20260901161203 | 69 | 113 | 1.0 | 8.0 | 0.00 | 0.00 | 0.00 | 75 | 1016.9 |
| 20260901160202 | 69 | 80 | 1.0 | 11.0 | 0.00 | 0.00 | 0.00 | 77 | 1016.9 |
| 20260901155203 | 69 | 78 | 1.0 | 9.0 | 0.00 | 0.00 | 0.00 | 79 | 1016.9 |
| 20260901154224 | 69 | 88 | 2.0 | 6.0 | 0.00 | 0.00 | 0.00 | 76 | 1016.9 |
| 20260901153202 | 68 | 83 | 1.0 | 4.0 | 0.00 | 0.00 | 0.00 | 77 | 1017.0 |
| 20260901152203 | 67 | 81 | 2.0 | 7.0 | 0.00 | 0.00 | 0.00 | 81 | 1017.1 |
| 20260901151203 | 64 | 75 | 2.0 | 9.0 | 0.00 | 0.00 | 0.00 | 82 | 1017.2 |